RYR9GQ EGSS-LFBI

Flight info

Callsign RYR9GQ
Flight time N/A
Altitude 26000
Route NUGBO M183 SILVA Q41 COWLY T71 VAPID N859 DRAKE L151 SITET UN859 AMB B19 OMARI
Aircraft B738/M-SDE2E3FGHIRWXY/LB1

Departure

Time N/A
Airport London Stansted Airport (EGSS)

Arrival

Time 2026-04-29 18:10
Airport Poitiers-Biard Airport (LFBI)
Time Latitude Longitude Altitude Speed Heading
2026-04-29 17:25 49.99507 0.04217 25101 ft 471 kts 165°
2026-04-29 17:25 49.96338 0.05402 25102 ft 465 kts 165°
2026-04-29 17:26 49.93231 0.06589 25091 ft 466 kts 165°
2026-04-29 17:26 49.90072 0.07813 25095 ft 466 kts 165°
2026-04-29 17:26 49.86912 0.09048 25088 ft 467 kts 165°
2026-04-29 17:26 49.83759 0.10282 25078 ft 468 kts 165°
2026-04-29 17:27 49.80638 0.11502 25074 ft 468 kts 165°
2026-04-29 17:27 49.77464 0.12740 25067 ft 468 kts 165°
2026-04-29 17:27 49.74295 0.13973 25067 ft 468 kts 165°
2026-04-29 17:27 49.71165 0.15189 25052 ft 469 kts 164°
2026-04-29 17:28 49.67996 0.16417 25050 ft 468 kts 165°
2026-04-29 17:28 49.64835 0.17671 25063 ft 469 kts 165°
2026-04-29 17:28 49.61678 0.18952 25057 ft 468 kts 164°
2026-04-29 17:28 49.58520 0.20242 25054 ft 469 kts 164°
2026-04-29 17:29 49.55402 0.21514 25050 ft 468 kts 164°
2026-04-29 17:29 49.52252 0.22794 25044 ft 468 kts 165°
2026-04-29 17:29 49.49089 0.24073 25048 ft 468 kts 165°
2026-04-29 17:29 49.46999 0.24916 25066 ft 468 kts 165°
2026-04-29 17:30 49.42775 0.26616 25064 ft 469 kts 165°
2026-04-29 17:30 49.39657 0.27868 25072 ft 469 kts 165°
2026-04-29 17:30 49.36497 0.29137 25063 ft 469 kts 165°
2026-04-29 17:30 49.33329 0.30406 25052 ft 469 kts 165°
2026-04-29 17:31 49.30166 0.31676 25051 ft 469 kts 165°
2026-04-29 17:31 49.27010 0.32980 25056 ft 469 kts 164°
2026-04-29 17:31 49.23903 0.34291 25043 ft 470 kts 164°
2026-04-29 17:31 49.20737 0.35633 25064 ft 471 kts 164°
2026-04-29 17:32 49.17577 0.36972 25051 ft 471 kts 164°
2026-04-29 17:32 49.14415 0.38305 25050 ft 471 kts 164°
2026-04-29 17:32 49.11250 0.39634 25050 ft 471 kts 164°
2026-04-29 17:32 49.09153 0.40513 25043 ft 471 kts 164°
2026-04-29 17:33 49.04964 0.42263 25043 ft 471 kts 165°
2026-04-29 17:33 49.01792 0.43585 25038 ft 472 kts 164°
2026-04-29 17:33 48.99687 0.44461 25031 ft 472 kts 164°
2026-04-29 17:33 48.96505 0.45786 25037 ft 474 kts 165°
2026-04-29 17:34 48.93314 0.47111 25043 ft 475 kts 164°
2026-04-29 17:34 48.89075 0.48870 25033 ft 477 kts 165°
2026-04-29 17:34 48.86905 0.49770 25032 ft 478 kts 164°
2026-04-29 17:34 48.83696 0.51099 25037 ft 479 kts 165°
2026-04-29 17:35 48.78343 0.53309 25037 ft 480 kts 165°
2026-04-29 17:35 48.74052 0.55014 25035 ft 481 kts 165°
2026-04-29 17:35 48.70816 0.56269 25028 ft 481 kts 165°
2026-04-29 17:36 48.67562 0.57526 25027 ft 481 kts 165°
2026-04-29 17:36 48.64309 0.58787 25028 ft 480 kts 165°
2026-04-29 17:36 48.61115 0.60029 25027 ft 480 kts 165°
2026-04-29 17:36 48.57878 0.61290 25022 ft 479 kts 165°
2026-04-29 17:37 48.54650 0.62547 25016 ft 479 kts 165°
2026-04-29 17:37 48.51417 0.63805 25020 ft 478 kts 165°
2026-04-29 17:37 48.48199 0.65092 25019 ft 477 kts 164°
2026-04-29 17:37 48.44984 0.66404 25006 ft 477 kts 164°
2026-04-29 17:38 48.41816 0.67702 25019 ft 476 kts 164°
2026-04-29 17:38 48.38618 0.69009 25011 ft 475 kts 164°
2026-04-29 17:38 48.35424 0.70308 25010 ft 475 kts 164°
2026-04-29 17:38 48.32231 0.71602 25004 ft 474 kts 164°
2026-04-29 17:39 48.29078 0.72875 24995 ft 473 kts 164°
2026-04-29 17:39 48.25893 0.74160 24998 ft 473 kts 165°
2026-04-29 17:39 48.22708 0.75434 25000 ft 472 kts 165°
2026-04-29 17:39 48.19525 0.76691 24999 ft 472 kts 165°
2026-04-29 17:40 48.16338 0.77941 24993 ft 471 kts 165°
2026-04-29 17:40 48.13199 0.79171 24987 ft 470 kts 165°
2026-04-29 17:40 48.10069 0.80397 24968 ft 453 kts 165°
2026-04-29 17:40 48.07085 0.81565 24961 ft 433 kts 165°
2026-04-29 17:41 48.04229 0.82683 24957 ft 413 kts 165°
2026-04-29 17:41 48.01499 0.83752 24960 ft 396 kts 165°
2026-04-29 17:41 47.98912 0.84765 24955 ft 381 kts 165°
2026-04-29 17:41 47.96395 0.85751 24945 ft 366 kts 165°
2026-04-29 17:42 47.93968 0.86699 24943 ft 353 kts 165°
2026-04-29 17:42 47.91603 0.87622 24721 ft 348 kts 165°
2026-04-29 17:42 47.89278 0.88528 24451 ft 344 kts 165°
2026-04-29 17:42 47.86991 0.89419 24139 ft 342 kts 165°
2026-04-29 17:43 47.84690 0.90313 23828 ft 340 kts 165°
2026-04-29 17:43 47.82400 0.91202 23504 ft 339 kts 165°
2026-04-29 17:43 47.80124 0.92084 23142 ft 337 kts 165°
2026-04-29 17:43 47.77859 0.92960 22792 ft 335 kts 165°
2026-04-29 17:44 47.75607 0.93830 22443 ft 333 kts 165°
2026-04-29 17:44 47.73376 0.94692 22123 ft 330 kts 165°
2026-04-29 17:44 47.71187 0.95537 21779 ft 328 kts 165°
2026-04-29 17:44 47.68981 0.96388 21462 ft 326 kts 164°
2026-04-29 17:45 47.66787 0.97234 21130 ft 325 kts 164°
2026-04-29 17:45 47.64605 0.98075 20813 ft 323 kts 163°
2026-04-29 17:45 47.62435 0.98909 20490 ft 321 kts 164°
2026-04-29 17:45 47.60273 0.99741 20160 ft 319 kts 164°
2026-04-29 17:46 47.58153 1.00556 19853 ft 317 kts 164°
2026-04-29 17:46 47.56008 1.01380 19540 ft 316 kts 163°
2026-04-29 17:46 47.53886 1.02194 19222 ft 315 kts 163°
2026-04-29 17:46 47.51764 1.03009 18907 ft 313 kts 163°
2026-04-29 17:47 47.49651 1.03818 18588 ft 313 kts 164°
2026-04-29 17:47 47.47548 1.04623 18274 ft 312 kts 164°
2026-04-29 17:47 47.45472 1.05415 17906 ft 312 kts 165°
2026-04-29 17:47 47.43312 1.05743 17526 ft 314 kts 185°
2026-04-29 17:48 47.41204 1.04898 17210 ft 316 kts 204°
2026-04-29 17:48 47.39302 1.03283 16895 ft 315 kts 210°
2026-04-29 17:48 47.37452 1.01560 16560 ft 314 kts 210°
2026-04-29 17:48 47.35606 0.99821 16242 ft 313 kts 210°
2026-04-29 17:49 47.33797 0.98127 15925 ft 311 kts 210°
2026-04-29 17:49 47.31968 0.96430 15619 ft 310 kts 209°
2026-04-29 17:49 47.30141 0.94745 15304 ft 308 kts 209°
2026-04-29 17:49 47.28321 0.93077 15024 ft 307 kts 208°
2026-04-29 17:50 47.26513 0.91426 14715 ft 305 kts 209°
2026-04-29 17:50 47.24710 0.89783 14409 ft 304 kts 209°
2026-04-29 17:50 47.22910 0.88143 14110 ft 303 kts 209°
2026-04-29 17:50 47.21122 0.86516 13807 ft 302 kts 209°
2026-04-29 17:51 47.19357 0.84914 13478 ft 301 kts 209°
2026-04-29 17:51 47.17578 0.83299 13148 ft 299 kts 209°
2026-04-29 17:51 47.15767 0.81821 12870 ft 295 kts 201°
2026-04-29 17:51 47.13875 0.80716 12589 ft 291 kts 198°
2026-04-29 17:52 47.11971 0.79724 12274 ft 289 kts 197°
2026-04-29 17:52 47.10714 0.79080 12077 ft 288 kts 197°
2026-04-29 17:52 47.08210 0.77787 11686 ft 286 kts 197°
2026-04-29 17:52 47.06338 0.76806 11394 ft 284 kts 197°
2026-04-29 17:53 47.04478 0.75822 11101 ft 283 kts 198°
2026-04-29 17:53 47.02630 0.74836 10803 ft 281 kts 198°
2026-04-29 17:53 47.00784 0.73847 10525 ft 280 kts 198°
2026-04-29 17:53 46.98977 0.72876 10242 ft 279 kts 198°
2026-04-29 17:54 46.97159 0.71897 10040 ft 275 kts 198°
2026-04-29 17:54 46.95380 0.70938 9867 ft 270 kts 198°
2026-04-29 17:54 46.93617 0.69988 9564 ft 269 kts 198°
2026-04-29 17:54 46.91878 0.69052 9276 ft 268 kts 198°
2026-04-29 17:55 46.90128 0.68110 9001 ft 266 kts 198°
2026-04-29 17:55 46.88386 0.67172 8720 ft 265 kts 198°
2026-04-29 17:55 46.86676 0.66252 8446 ft 264 kts 198°
2026-04-29 17:55 46.84960 0.65329 8190 ft 262 kts 198°
2026-04-29 17:56 46.83246 0.64408 7920 ft 261 kts 198°
2026-04-29 17:56 46.81544 0.63494 7654 ft 259 kts 198°
2026-04-29 17:56 46.79850 0.62585 7387 ft 258 kts 198°
2026-04-29 17:56 46.78189 0.61693 7140 ft 256 kts 198°
2026-04-29 17:57 46.76520 0.60798 6888 ft 255 kts 198°
2026-04-29 17:57 46.74854 0.59906 6624 ft 254 kts 198°
2026-04-29 17:57 46.73193 0.59017 6360 ft 254 kts 198°
2026-04-29 17:57 46.72095 0.58429 6179 ft 253 kts 198°
2026-04-29 17:58 46.69881 0.57245 5810 ft 252 kts 198°
2026-04-29 17:58 46.68234 0.56365 5545 ft 251 kts 197°
2026-04-29 17:58 46.66601 0.55492 5343 ft 249 kts 197°
2026-04-29 17:58 46.64997 0.54635 5236 ft 242 kts 197°
2026-04-29 17:59 46.63436 0.53801 5138 ft 236 kts 197°
2026-04-29 17:59 46.61917 0.52991 5011 ft 229 kts 197°
2026-04-29 17:59 46.60442 0.52205 4941 ft 222 kts 197°
2026-04-29 17:59 46.59029 0.51453 4824 ft 215 kts 197°
2026-04-29 18:00 46.57621 0.50704 4666 ft 215 kts 196°
2026-04-29 18:00 46.56241 0.49880 4490 ft 214 kts 210°
2026-04-29 18:00 46.55132 0.48426 4427 ft 213 kts 222°
2026-04-29 18:00 46.54100 0.46919 4328 ft 211 kts 221°
2026-04-29 18:01 46.53076 0.45441 4235 ft 204 kts 221°
2026-04-29 18:01 46.52085 0.44018 4139 ft 197 kts 221°
2026-04-29 18:01 46.51119 0.42637 4056 ft 194 kts 221°
2026-04-29 18:01 46.50154 0.41261 4029 ft 194 kts 221°
2026-04-29 18:02 46.49187 0.39886 3956 ft 198 kts 220°
2026-04-29 18:02 46.48197 0.38482 3894 ft 200 kts 220°
2026-04-29 18:02 46.47197 0.37064 3769 ft 200 kts 220°
2026-04-29 18:02 46.46204 0.35656 3676 ft 197 kts 220°
2026-04-29 18:03 46.45227 0.34273 3588 ft 196 kts 220°
2026-04-29 18:03 46.44266 0.32913 3515 ft 195 kts 220°
2026-04-29 18:03 46.43297 0.31542 3434 ft 194 kts 220°
2026-04-29 18:03 46.42322 0.30167 3352 ft 196 kts 221°
2026-04-29 18:04 46.41342 0.28784 3278 ft 197 kts 220°
2026-04-29 18:04 46.40358 0.27399 3155 ft 195 kts 221°
2026-04-29 18:04 46.39408 0.26059 3026 ft 185 kts 220°
2026-04-29 18:04 46.38683 0.24634 2970 ft 177 kts 253°
2026-04-29 18:05 46.38750 0.22872 3020 ft 182 kts 293°
2026-04-29 18:05 46.39368 0.21254 3022 ft 185 kts 301°
2026-04-29 18:05 46.40018 0.19648 2998 ft 182 kts 301°
2026-04-29 18:05 46.40659 0.18080 3003 ft 178 kts 302°
2026-04-29 18:06 46.41518 0.16884 2989 ft 176 kts 345°
2026-04-29 18:06 46.42695 0.17009 3028 ft 172 kts 32°
2026-04-29 18:06 46.43729 0.17876 3032 ft 171 kts 33°
2026-04-29 18:06 46.44766 0.18722 3019 ft 170 kts 34°
2026-04-29 18:07 46.45777 0.19568 3022 ft 169 kts 34°
2026-04-29 18:07 46.46798 0.20436 2979 ft 172 kts 34°
2026-04-29 18:07 46.47832 0.21320 2783 ft 168 kts 34°
2026-04-29 18:07 46.48797 0.22146 2545 ft 157 kts 34°
2026-04-29 18:08 46.49711 0.22930 2362 ft 152 kts 34°
2026-04-29 18:08 46.50628 0.23719 2163 ft 155 kts 33°
2026-04-29 18:08 46.51568 0.24526 1956 ft 158 kts 33°
2026-04-29 18:08 46.52512 0.25335 1738 ft 157 kts 33°
2026-04-29 18:09 46.53439 0.26131 1526 ft 157 kts 32°
2026-04-29 18:09 46.54379 0.26938 1332 ft 156 kts 32°
2026-04-29 18:09 46.55308 0.27735 1114 ft 154 kts 31°
2026-04-29 18:09 46.56220 0.28517 914 ft 151 kts 32°
2026-04-29 18:10 46.57120 0.29290 689 ft 150 kts 34°
2026-04-29 18:10 46.58019 0.30053 463 ft 149 kts 34°
2026-04-29 18:10 46.58843 0.30768 423 ft 113 kts 30°
2026-04-29 18:10 46.59229 0.31088 418 ft 13 kts 11°
2026-04-29 18:11 46.59246 0.31106 423 ft 1 kts 103°
2026-04-29 18:11 46.59227 0.31099 418 ft 7 kts 209°
2026-04-29 18:11 46.59139 0.31022 415 ft 21 kts 210°
2026-04-29 18:11 46.59006 0.30909 421 ft 22 kts 210°
2026-04-29 18:12 46.58877 0.30795 423 ft 21 kts 211°
2026-04-29 18:12 46.58746 0.30712 416 ft 21 kts 170°
2026-04-29 18:12 46.58656 0.30861 429 ft 20 kts 124°
2026-04-29 18:12 46.58662 0.30997 425 ft 7 kts 42°
2026-04-29 18:13 46.58660 0.31057 430 ft 5 kts 113°
2026-04-29 18:13 46.58642 0.31078 425 ft 1 kts 181°
2026-04-29 18:13 46.58637 0.31065 425 ft 3 kts 254°
2026-04-29 18:13 46.58634 0.31050 427 ft 0 kts 254°
2026-04-29 18:14 46.58634 0.31048 427 ft 0 kts 254°